Regional Weather Roundup
Issued by NWS Upton, NY

Current Version | Previous Version | Text Only | Print | Product List | Glossary On
Versions: 1 2 3 4 5 6 7 8 9 10 11 12 13 14 15 16 17 18 19 20 21 22 23 24 25 26 27 28
000 ASUS41 KOKX 242109 RWROKX REGIONAL WEATHER ROUNDUP NATIONAL WEATHER SERVICE NEW YORK NY 500 PM EDT MON JUL 24 2017 NOTE: "FAIR" INDICATES FEW OR NO CLOUDS BELOW 12,000 FEET WITH NO SIGNIFICANT WEATHER AND/OR OBSTRUCTIONS TO VISIBILITY. NYZ071-072-176-178-NJZ106-104-242200- NEW YORK CITY METRO AREA CITY SKY/WX TMP DP RH WIND PRES REMARKS Central Park CLOUDY 69 59 70 VRB3 29.88S Bronx Bot Gard N/A 68 57 68 NW3 29.86F LaGuardia APRT CLOUDY 68 60 75 NE10 29.85S Kennedy INTL PTSUNNY 69 61 75 N14 29.86R Breezy Point N/A 66 N/A N/A N10 N/A Newark/Liberty PTSUNNY 71 60 68 NE9 29.85R Teterboro CLOUDY 71 60 68 NE7 29.84S $$ NYZ177-179-078>081-242200- LONG ISLAND NEW YORK CITY SKY/WX TMP DP RH WIND PRES REMARKS Jones Beach N/A 64 N/A N/A NE14 N/A Matinecock PT N/A 64 N/A N/A NE12 N/A Farmingdale CLOUDY 65 58 78 NE12 29.85R MacArthur/ISP CLOUDY 65 60 84 N16 29.83S Shirley CLOUDY 66 61 84 N12G18 29.85R Mt Sinai Harb N/A N/A N/A N/A N16 N/A Westhampton CLOUDY 64 58 80 N16G26 29.85R East Hampton CLOUDY 61 58 88 N13G18 29.83R Montauk N/A 62 59 90 N15G24 29.84R $$ NYZ052-065-067-242200- HUDSON VALLEY CITY SKY/WX TMP DP RH WIND PRES REMARKS White Plains PTSUNNY 68 58 70 NE7 29.85F Larchmont Harb N/A 66 N/A N/A NE10 N/A Croton O-T Hud N/A 70 N/A N/A NE6 N/A Newburgh CLOUDY 66 61 82 NE8 29.89R Montgomery CLOUDY 67 60 78 N9 29.86F Poughkeepsie CLOUDY 68 57 68 NE3 29.86R Albany CLOUDY 65 57 75 W3 29.88F $$ NJZ001-105-106-008-010-013-015-019>022-104-242200- NEW JERSEY CITY SKY/WX TMP DP RH WIND PRES REMARKS Newark/Liberty PTSUNNY 71 60 68 NE9 29.85R Teterboro CLOUDY 71 60 68 NE7 29.84S Caldwell CLOUDY 71 62 73 NE6 29.85S Somerville FAIR 78 66 66 VRB3 29.81S Linden CLOUDY 71 58 63 CALM 29.85S Perth Amboy N/A 70 N/A N/A E8 N/A Sussex CLOUDY 69 62 78 N9 29.86F Andover N/A 72 62 71 VRB6 29.85F Trenton FAIR 80 68 66 E7 29.81S Millville FAIR 87 70 56 W9 29.80S HX 92 Atlantic City PTSUNNY 80 72 76 SE13 29.81R Wrightstown FAIR 79 67 67 E8 29.79F Toms River FAIR 78 67 68 N8 29.83S Belmar FAIR 71 62 73 N9 29.86R $$ PAZ047>061-062-071-242200- EASTERN PENNSYLVANIA CITY SKY/WX TMP DP RH WIND PRES REMARKS Philadelphia FAIR 87 67 51 SW9 29.79F HX 90 Allentown PTSUNNY 82 67 60 SE9 29.80S Scranton PTSUNNY 80 65 59 N9 29.81R $$ CTZ002-004>006-009-010-012-RIZ004-006-007-MAZ004-011-015-242200- SOUTHERN NEW ENGLAND IN CT CITY SKY/WX TMP DP RH WIND PRES REMARKS Bradley INTL CLOUDY 61 57 87 N8 29.90S Hartford CLOUDY 63 57 81 N15G21 29.88S Danbury CLOUDY 64 57 78 NE9 29.88S Wtrbury/Oxford CLOUDY 61 52 72 NE14G21 29.88S Bridgeport LGT RAIN 67 57 70 NE14 29.85R Meriden CLOUDY 63 57 81 N8 29.87F New Haven CLOUDY 66 57 72 N16 29.85S Chester CLOUDY 63 55 77 N10G17 29.86S Groton CLOUDY 62 56 80 N17G28 29.83R Wilimantic CLOUDY 62 57 83 NE9 29.88S IN RI CITY SKY/WX TMP DP RH WIND PRES REMARKS Providence LGT RAIN 59 58 96 N14G23 29.86R Block Island CLOUDY 60 58 92 N16G23 29.81R Westerly CLOUDY 61 58 90 N13G22 29.84R IN MA CITY SKY/WX TMP DP RH WIND PRES REMARKS Boston HVY RAIN 58 57 97 NE17G23 29.89S VSB 1 Worcester LGT RAIN 55 53 93 NE12G20 29.91R FOG Westfield CLOUDY 59 58 96 N9 29.91S Provincetown LGT RAIN 62 61 96 NE16 29.81S FOG Nantucket CLOUDY 64 64 100 SE13 29.77R FOG $$ ANZ330-335-338-340-345-350-353-355-242200- COASTAL MARINE OBSERVATIONS STATION/POSITION TIME SKY/WX TEMP WIND PRES VSBY WAVE AIR SEA DIR/SP/G HT/PER (UTC) (F) (DEG/KT/KT) (MB) (MI) (FT/S) NY HARB ENTRANCE 1950 65 73 350/ 12/ 16 1010.1 5/ 7 20 S FIRE ISLAND 2050 66 75 10/ 16/ 19 1009.9 6/ 7 GREAT SOUTH BAY 2030 65 79 360/ 14/ 19 N/A 23 SSW MONTAUK P 1950 67 74 1007.5 6/ 6 15 E BARNEGAT LI 2030 75 N/A 6/ 7 HUDSON CANYON 1950 75 78 300/ 19/ 21 1008.1 6/ 7 KINGS POINT 2036 67 72 70/ 5/ 10 1010.7 EXECUTION ROCKS 2045 68 60/ 12/ 16 N/A CENTRAL LI SOUND NOT AVBL EASTERN LI SOUND NOT AVBL ROBBINS REEF 2036 20/ 9/ 11 1011.2 $$ >>>>>>>>>>>>>>>>>>>>>>>>>>>> KEY <<<<<<<<<<<<<<<<<<<<<<<<<<< > < > SKY/WX - Sky Condition/Present Weather < > TMP - Temperature in Fahrenheit < > DP - Dew Point in Fahrenheit < > RH - Relative Humidity in Percent < > WIND - Direction (from) and Speed in MPH < > PRES - Mean Sea Level Pressure (inches of Hg) < > WCI - Wind Chill Index < > VSB - VISIBILITY IN MILES < > HX - HEAT INDEX < > TC - TEMPERATURE IN CELSIUS < > VRB - VARIABLE WIND DIRECTION < > < >>>>>>>>>>>>>>>>>>>>>>>>>>>> KEY <<<<<<<<<<<<<<<<<<<<<<<<<<<

USA.gov is the U.S. government's official web portal to all federal, state and local government web resources and services.